Regional Weather Roundup
Issued by NWS Newport/Morehead, NC

Current Version | Previous Version | Text Only | Print | Product List | Glossary Off
Versions: 1 2 3 4 5 6 7 8 9 10 11 12 13 14 15 16 17 18 19 20 21 22 23 24 25 26 27 28 29 30 31 32 33 34 35 36 37 38 39 40 41 42 43 44 45 46 47 48 49 50
000 ASUS42 KMHX 271125 RWRMHX WEATHER ROUNDUP FOR EASTERN NORTH CAROLINA NATIONAL WEATHER SERVICE NEWPORT/MOREHEAD CITY NC 700 AM EDT SAT MAY 27 2017 NOTE: "FAIR" INDICATES FEW OR NO CLOUDS BELOW 12,000 FEET WITH NO SIGNIFICANT WEATHER AND/OR OBSTRUCTIONS TO VISIBILITY NCZ015>017-031-032-045>047-102-103-271200- NORTH COAST CITY SKY/WX TMP DP RH WIND PRES REMARKS EDENTON SUNNY 71 62 73 CALM 29.94F ELIZABETH CITY SUNNY 66 63 90 SW6 29.93F KITTY HAWK SUNNY 69 60 73 CALM 29.93F MANTEO SUNNY 69 62 78 W5 29.95S $$ NCZ045>047-081-094-103-104-271200- CENTRAL COAST CITY SKY/WX TMP DP RH WIND PRES REMARKS FRISCO SUNNY 73 66 78 W6 29.96R HAZE $$ NCZ095-097-098-100-101-271200- SOUTHERN COAST CITY SKY/WX TMP DP RH WIND PRES REMARKS BEAUFORT SUNNY 70 63 78 NW3 29.97S CEDAR ISLAND NOT AVBL JACKSONVILLE SUNNY 65 61 87 SW6 29.97S PINEY ISLAND SUNNY N/A N/A N/A SW5 29.96S WILMINGTON SUNNY 63 60 90 S3 29.98S $$ NCZ011>013-027>030-043-044-078>080-089-090>093-098-271200- COASTAL PLAIN CITY SKY/WX TMP DP RH WIND PRES REMARKS AHOSKIE NOT AVBL CLINTON CLEAR 62 60 94 CALM 29.97S ELIZABETHTOWN CLEAR 64 59 81 SW3 29.97S GOLDSBORO NOT AVBL GREENVILLE SUNNY 64 61 88 SW3 29.97S HAVELOCK SUNNY 63 61 93 CALM 29.97F KENANSVILLE SUNNY 59 59 100 CALM 29.97S KINSTON SUNNY 63 61 94 CALM 29.96S NEW BERN SUNNY 65 61 87 SW3 29.97F RICHLANDS SUNNY 62 59 90 S3 29.98S ROCKY MOUNT SUNNY 61 61 100 CALM 29.95R WASHINGTON SUNNY 65 59 80 CALM 29.95S WHITEVILLE CLEAR 64 59 85 CALM 29.98S $$ AMZ130-135-150-152-154-156-158-170-250-252-270-ANZ085-086-088-633-658-670-271200- MARINE OBSERVATIONS STATION/POSITION TIME TEMP WIND PRES WAVE SWELL AIR SEA DIR/SP/G HT/PER HT/PER (UTC) (F) (DEG/KT/KT) (MB) (FT/S) (FT/S) CHESAPEAKE LIGHT NOT AVBL 64 E VA BEACH 1050 65 62 50/ 2/ 4 1014.5 3/ 7 3/ 7 DUCK 1100 71 63 240/ 9/ 11 1013.3 2 E DUCK 1100 63 N/A 1/ 8 OREGON INLET 1100 71 68 230/ 10/ 12 1013.8 13E OREGON INLT 1048 66 N/A 3/ 6 2/ 6 HATTERAS CG 1100 73 72 240/ 5/ 7 1014.4 DIAMOND BUOY 1050 76 77 250/ 10/ 12 1014.4 4/ 7 3/ 7 CAPE LOOKOUT 1100 74 250/ 4/ 5 1014.6 BEAUFORT LAB 1100 71 71 310/ 3/ 5 1014.1 30 SE NEW RVR IN 1108 75 77 270/ 10/ 14 1015.4 30 SE NEW RVR IN 1113 78 N/A 4/ 6 27 SE WRIGHTSVLE 1108 75 76 240/ 12/ 17 1015.0 5 SE WRIGHTSVLE 1108 73 74 240/ 8/ 12 1015.2 225 S CAPE HAT 1050 76 77 270/ 8/ 12 1017.0 4/ 6 3/ 6 41 SE CHARLESTON 1110 74 74 230/ 10/ 12 1016.4 $$

USA.gov is the U.S. government's official web portal to all federal, state and local government web resources and services.